This demonstration page uses our WeatherBlox Daily Observations layout. Learn more.

Left ArrowRight Arrow

Hourly Observations for April 17, 2017

Temp ( °F °C ) Dew Point ( °F °C ) Humidity (%) Winds ( mph kmh ) Pressure ( in mb ) Visibility ( mi km ) Precip ( " mm )
12:25 am 00:25 Cloudy 53 11.7 50 10 89 89 S 13 20 29.97 1015 10 16 0.00 0.00
12:53 am 00:53 Cloudy 52 11.1 50 10 93 93 SSW 8 13 29.98 1015 10 16 0.00 0.00
1:07 am 01:07 Cloudy 52 11.1 50 10 93 93 SSW 8 13 30.00 1016 10 16 0.00 0.00
1:53 am 01:53 Cloudy 52 11.1 50 10 93 93 SSW 6 9 29.98 1015 10 16 0.00 0.00
2:53 am 02:53 Cloudy 52 11.1 50 10 93 93 W 3 6 29.98 1015 10 16 0.00 0.00
3:15 am 03:15 Cloudy 52 11.1 50 10 93 93 Calm 30.00 1016 10 16 0.00 0.00
3:53 am 03:53 Cloudy 52 11.1 49 9.4 89 89 NW 3 6 29.99 1016 10 16 0.00 0.00
4:14 am 04:14 Cloudy 52 11 50 10 94 94 Calm 30.00 1016 10 16 0.00 0.00
4:22 am 04:22 Cloudy 52 11 50 10 94 94 Calm 30.00 1016 10 16 0.00 0.00
4:53 am 04:53 Cloudy 52 11.1 50 10 93 93 Calm 30.00 1016 10 16 0.00 0.00
5:12 am 05:12 Cloudy 52 11 50 10 94 94 Calm 30.00 1016 10 16 0.00 0.00
5:53 am 05:53 Cloudy 51 10.6 50 10 96 96 NW 3 6 30.01 1016 10 16 0.00 0.00
6:53 am 06:53 Cloudy 51 10.6 50 10 96 96 NE 8 13 29.99 1016 10 16 0.00 0.00
7:22 am 07:22 Cloudy 52 11 50 10 94 94 Calm 30.03 1017 10 16 0.00 0.00
7:35 am 07:35 Cloudy with Light Rain 51 10.6 50 10 96 96 Calm 30.03 1017 9 14 0.00 0.03
7:53 am 07:53 Cloudy 51 10.6 50 10 96 96 Calm 30.02 1017 10 16 0.00 0.03
8:28 am 08:28 Mostly Cloudy 54 12 52 11 94 94 NW 3 6 30.00 1016 10 16 0.00 0.00
8:40 am 08:40 Mostly Cloudy 54 12 52 11 94 94 Calm 30.00 1016 10 16 0.00 0.00
8:53 am 08:53 Mostly Cloudy 53 11.7 51 10.6 93 93 W 3 6 30.01 1016 10 16 0.00 0.00
9:15 am 09:15 Cloudy 53 11.7 52 11.1 96 96 Calm 30.00 1016 10 16 0.00 0.00
9:28 am 09:28 Cloudy 54 12 52 11 94 94 W 6 9 30.03 1017 10 16 0.00 0.00
9:53 am 09:53 Cloudy 53 11.7 51 10.6 93 93 WNW 3 6 30.02 1017 10 16 0.00 0.00
10:35 am 10:35 Mostly Cloudy 55 12.8 51 10.6 87 87 N 3 6 30.03 1017 10 16 0.00 0.00
10:53 am 10:53 Mostly Cloudy 56 13.3 50 10 81 81 Calm 30.01 1016 10 16 0.00 0.00
11:46 am 11:46 Cloudy 57 14 48 9 72 72 Calm 30.03 1017 10 16 0.00 0.00
11:53 am 11:53 Cloudy 57 13.9 49 9.4 74 74 Calm 30.02 1017 10 16 0.00 0.00
12:53 pm 12:53 Cloudy 58 14.4 49 9.4 72 72 Calm 30.00 1016 10 16 0.00 0.00
1:53 pm 13:53 Mostly Cloudy 59 15 49 9.4 69 69 Calm 30.00 1016 10 16 0.00 0.00
2:53 pm 14:53 Mostly Cloudy 60 15.6 51 10.6 72 72 E 5 7 29.99 1016 10 16 0.00 0.00
3:53 pm 15:53 Cloudy 59 15 51 10.6 75 75 Calm 29.99 1016 10 16 0.00 0.00
4:53 pm 16:53 Cloudy 60 15.6 52 11.1 75 75 S 7 11 29.96 1015 10 16 0.00 0.00
5:53 pm 17:53 Mostly Cloudy 61 16.1 53 11.7 75 75 S 8 13 29.96 1015 10 16 0.00 0.00
6:24 pm 18:24 Cloudy with Light Rain 59 15 54 12 82 82 SSE 14 22 29.94 1014 6 10 0.00 0.00
6:53 pm 18:53 Cloudy 59 15 54 12.2 83 83 SSE 10 17 29.95 1014 10 16 0.01 0.25
7:53 pm 19:53 Cloudy with Light Rain 58 14.4 54 12.2 87 87 S 12 19 29.95 1014 10 16 0.01 0.25
8:53 pm 20:53 Cloudy 58 14.4 53 11.7 84 84 SSE 14 22 29.95 1014 10 16 0.01 0.25
9:53 pm 21:53 Cloudy 58 14.4 50 10 75 75 S 20 31 29.96 1014 10 16 0.00 0.00
10:53 pm 22:53 Mostly Cloudy 57 13.9 50 10 78 78 S 15 24 29.97 1015 10 16 0.00 0.00
11:53 pm 23:53 Mostly Cloudy 57 13.9 50 10 78 78 S 14 22 29.97 1015 10 16 0.00 0.00

Powered by AerisWeather